Location: Caltech
(34.1382°N, 118.1253°W)
Time: 06:12:02
(UTC-07:00)

Cosmos 1833 - Visible Passes

Search period start: 27 June 2016 00:00
Search period end: 07 July 2016 00:00
Orbit: 834 x 865 km, 70.9° (Epoch: 26 June)

Date Brightness Start Highest point End Pass type
(mag) Time Alt. Az. Time Alt. Az. Time Alt. Az.
27 Jun 6.3 22:11:43 10° WSW 22:16:27 26° WNW 22:21:11 10° N visible
28 Jun 6.4 21:59:01 10° WSW 22:03:46 27° WNW 22:08:30 10° N visible
29 Jun 6.4 21:46:19 10° WSW 21:51:04 27° WNW 21:55:50 10° N visible
30 Jun 6.4 21:33:36 10° WSW 21:38:23 27° WNW 21:43:09 10° N visible
01 Jul 6.5 21:20:54 10° WSW 21:25:41 27° WNW 21:30:28 10° N visible
02 Jul 6.5 21:08:12 10° WSW 21:12:59 27° WNW 21:17:48 10° N visible
03 Jul 6.6 20:55:30 10° WSW 21:00:18 28° WNW 21:05:07 10° N visible
04 Jul 6.6 20:42:48 10° WSW 20:47:37 28° WNW 20:52:26 10° N visible
05 Jul 6.7 20:30:05 10° WSW 20:34:56 28° WNW 20:39:45 10° N visible
